Location: *
(40.4270°N, 9.4940°E)
Time: 10:45:40
(UTC+01:00)

Okean 2 - Visible Passes

Search period start: 12 February 2016 00:00
Search period end: 22 February 2016 00:00
Orbit: 564 x 580 km, 82.5° (Epoch: 11 February)

Date Brightness Start Highest point End Pass type
(mag) Time Alt. Az. Time Alt. Az. Time Alt. Az.
19 Feb 5.4 19:37:37 10° NNE 19:38:33 15° NNE 19:38:33 15° NNE visible
20 Feb 4.7 19:39:57 10° N 19:42:04 25° NNE 19:42:04 25° NNE visible
20 Feb 6.6 21:18:03 10° NW 21:18:19 11° NW 21:18:19 11° NW visible
21 Feb 3.6 19:42:22 10° N 19:45:49 47° NE 19:45:49 47° NE visible
21 Feb 6.7 21:21:33 10° WNW 21:22:05 11° WNW 21:22:05 11° WNW visible
